CAPE
13 4 8 6 6 5 1 2 3 3 3 1 2 3 4 3 0 0 0 0 0 0 3 0 0 0 0 0 0 0 0 0 0 0 0 0 0 0 0 0 0 0 0 0 0
0 3 7 5 5 5 6 5 5 5 5 2 0 0 0 2 0 0 0 0 0 2 0 0 0 0 0 0 0 0 0 0 0 0 0 0 0 0 0 0 0 0 0 0 0
2 2 4 6 6 3 5 5 5 3 2 0 0 0 0 6 0 0 0 0 0 0 0 0 16 8 0 0 0 0 0 0 0 0 0 0 0 0 0 0 0 0 0 0 0
3 4 6 6 5 3 4 3 2 2 1 1 0 0 0 0 0 0 0 0 0 0 0 0 6 15 5 1 0 0 0 0 0 0 0 0 0 0 0 0 0 0 0 0 0
2 6 5 3 2 4 2 1 1 1 0 0 0 0 0 0 0 0 0 0 0 0 0 0 0 14 2 2 0 0 0 0 0 0 0 0 0 0 0 0 0 0 0 0 0
13 14 8 1 5 3 4 7 3 2 0 0 0 0 1 0 0 0 0 0 0 0 0 0 0 1 0 17 5 0 0 0 0 0 0 0 0 0 0 0 0 0 0 0 0
8 12 5 4 9 12 7 16 6 2 0 0 0 0 0 0 0 0 0 0 0 0 0 0 0 0 0 1 8 12 6 0 0 0 0 0 0 0 0 0 0 0 0 0 0
17 17 8 13 17 22 18 18 7 0 0 0 0 0 0 0 0 0 0 0 0 0 0 0 0 0 0 0 0 6 2 1 0 0 0 0 0 0 0 0 0 0 0 0 0
17 9 11 20 10 24 18 10 0 0 0 0 0 0 0 0 3 0 0 0 0 0 0 0 0 0 0 4 0 0 1 0 0 0 0 0 0 0 0 0 0 0 0 0 0
26 15 25 22 17 22 12 0 0 0 0 0 0 0 0 0 0 0 0 0 0 0 0 0 0 0 0 3 0 0 0 0 0 0 0 0 0 0 0 0 0 0 0 0 0
22 14 10 18 21 10 0 0 0 0 0 0 0 0 0 0 0 0 0 0 0 0 0 0 0 0 0 0 2 7 3 0 0 0 0 0 0 0 0 0 0 0 0 0 0
25 17 17 24 23 1 0 0 4 18 2 0 0 0 0 0 0 0 0 0 0 0 0 0 0 0 0 0 0 0 0 1 0 0 3 0 0 0 0 0 0 0 0 0 0
19 18 19 19 12 0 0 0 0 0 2 0 0 0 0 0 0 0 0 0 0 1 0 0 0 0 0 0 0 0 0 0 0 6 0 0 0 0 0 0 0 0 0 0 0
14 15 14 19 0 0 0 0 0 0 0 0 0 0 0 0 0 0 0 0 0 0 0 0 0 0 0 0 0 0 0 0 0 0 0 0 0 0 0 0 0 0 0 0 0
11 8 11 10 0 0 0 0 0 0 0 0 0 0 0 0 0 0 0 0 0 0 0 0 0 0 0 0 0 0 0 0 0 0 0 0 2 0 0 0 0 0 0 0 0
9 4 0 0 0 0 0 0 0 0 0 0 0 0 0 0 0 0 0 0 0 0 0 0 0 0 0 0 0 0 0 0 0 0 0 0 0 0 0 0 0 0 0 0 0
6 0 0 0 0 0 0 0 0 0 0 0 0 0 0 0 0 0 0 0 0 0 0 0 0 0 0 0 0 0 0 0 0 0 0 0 0 0 0 0 0 0 0 0 0
7 0 0 0 0 0 0 0 0 0 0 0 0 0 0 0 0 0 0 0 0 0 0 0 0 0 0 0 0 0 0 0 0 0 0 0 0 0 0 0 0 0 0 0 0
0 0 0 0 0 0 0 0 0 0 0 0 0 0 0 0 0 0 0 0 0 0 0 0 0 0 0 0 1 0 0 0 0 0 14 0 0 0 0 0 0 0 0 0 0
0 0 0 0 0 0 0 0 0 0 0 0 0 0 0 0 0 0 0 0 0 0 0 0 0 0 0 0 0 0 0 2 2 2 0 0 0 0 0 0 0 0 0 0 0
2 0 0 0 0 0 0 0 0 0 0 0 0 0 0 0 0 0 0 0 0 0 0 0 0 0 0 0 0 0 0 0 0 0 0 0 0 0 0 0 0 0 0 0 0
6 0 0 0 0 0 0 0 0 0 0 0 0 0 0 0 0 0 0 0 0 0 0 0 0 0 0 0 0 0 0 0 0 0 2 0 0 0 0 0 3 0 0 0 0
0 0 0 0 0 0 0 0 0 0 0 0 0 0 0 0 0 0 0 0 0 0 0 0 0 0 0 0 0 0 0 0 0 0 0 0 0 0 0 0 4 2 0 0 0
0 0 0 0 0 0 0 0 0 0 0 0 0 0 0 0 0 0 0 0 0 0 0 0 0 0 0 0 0 0 0 0 0 0 0 0 0 0 0 0 0 0 0 0 0
0 0 0 0 0 0 0 0 0 0 0 0 0 0 0 0 0 0 0 0 0 0 2 0 0 0 0 0 0 0 0 0 0 0 0 0 0 0 1 1 0 0 0 0 0
0 0 0 0 0 0 0 0 0 0 0 0 0 0 0 0 0 0 0 0 0 0 0 0 0 0 0 0 0 0 0 0 0 0 0 0 0 0 0 0 0 0 0 0 0
0 0 1 0 0 0 0 0 0 0 0 0 0 0 0 0 0 0 0 0 0 0 0 0 0 0 0 0 0 0 0 0 0 0 0 0 0 0 0 0 0 0 0 0 0
CIN
-1 -0 -0 -1 -1 -1 -0 -0 -1 -1 -1 -1 -0 -0 -1 -1 -0 -0 -0 -0 -0 -0 -0 -0 -0 -0 -0 -0 -0 -0 -0 -0 -0 -0 -0 -0 -0 -0 -0 -0 -0 -0 -0 -0 -0
-0 -1 -1 -1 -1 -1 -1 -1 -1 -1 -0 -0 -0 -0 -0 -1 -0 -0 -0 -0 -0 -0 -0 -0 -0 -0 -0 -0 -0 -0 -0 -0 -0 -0 -0 -0 -0 -0 -0 -0 -0 -0 -0 -0 -0
-1 -1 -0 -1 -1 -0 -1 -1 -1 -0 -0 -0 -0 -0 -0 -1 -0 -0 -0 -0 -0 -0 -0 -1 -1 -0 -0 -0 -0 -0 -0 -0 -0 -0 -0 -0 -0 -0 -0 -0 -0 -0 -0 -0 -0
-0 -1 -1 -1 -1 -0 -0 -0 -0 -0 -1 -0 -0 -0 -0 -0 -0 -0 -0 -0 -0 -0 -0 -0 -1 -1 -0 -0 -0 -0 -0 -0 -0 -0 -0 -0 -0 -0 -0 -0 -0 -0 -0 -0 -0
-0 -0 -1 -0 -0 -0 -1 -1 -1 -0 -0 -0 -0 -0 -0 -0 -0 -0 -0 -0 -0 -0 -0 -0 -5 -2 -0 -3 -1 -0 -0 -0 -0 -0 -0 -0 -0 -0 -0 -0 -0 -0 -0 -0 -0
-0 -0 -0 -0 -0 -0 -0 -0 -1 -0 -0 -0 -0 -0 -0 -0 -0 -0 -0 -0 -0 -0 -0 -0 -0 -6 -0 -1 -0 -2 -0 -0 -0 -0 -0 -0 -0 -0 -0 -0 -0 -0 -0 -0 -0
-1 -0 -0 -0 -0 -0 -0 -1 -1 -1 -0 -0 -0 -0 -0 -0 -0 -0 -0 -0 -0 -0 -0 -0 -0 -0 -0 -1 -3 -1 -0 -0 -0 -0 -0 -0 -0 -0 -0 -0 -0 -0 -0 -0 -0
-0 -0 -0 -0 -1 -1 -0 -1 -0 -0 -0 -0 -0 -0 -0 -0 -0 -0 -0 -0 -0 -0 -0 -0 -0 -0 -0 -0 -11 -4 -6 -0 -0 -0 -0 -0 -0 -0 -0 -0 -0 -0 -0 -0 -0
-0 -0 -0 -1 -0 -0 -0 -0 -0 -0 -0 -0 -0 -0 -0 -0 -1 -0 -0 -0 -0 -0 -0 -0 -0 -0 -0 -0 -0 -0 -1 -0 -0 -0 -0 -0 -0 -0 -0 -0 -0 -0 -0 -0 -0
-0 -0 -0 -0 -0 -1 -1 -0 -0 -0 -0 -0 -0 -0 -0 -0 -0 -0 -0 -0 -0 -0 -0 -0 -0 -0 -0 -0 -0 -0 -0 -0 -0 -0 -0 -0 -0 -0 -0 -0 -0 -0 -0 -0 -0
-0 -0 -0 -1 -0 -1 -0 -0 -0 -0 -0 -0 -0 -0 -0 -0 -0 -0 -0 -0 -0 -0 -0 -0 -0 -0 -0 -0 -3 -4 -4 -1 -0 -0 -0 -0 -0 -0 -0 -0 -0 -0 -0 -0 -0
-0 -0 -0 -0 -0 -0 -0 -0 -0 -2 -0 -0 -0 -0 -0 -0 -0 -0 -0 -0 -0 -0 -0 -0 -0 -0 -0 -0 -0 -0 -0 -4 -0 -0 -2 -0 -0 -0 -0 -0 -0 -0 -0 -0 -0
-0 -0 -0 -0 -1 -0 -0 -0 -0 -2 -0 -0 -0 -0 -0 -0 -0 -0 -0 -0 -0 -1 -0 -0 -0 -0 -0 -0 -0 -0 -0 -0 -0 -6 -0 -1 -0 -0 -0 -0 -0 -0 -0 -0 -0
-0 -0 -0 -0 -0 -0 -0 -0 -0 -1 -0 -0 -0 -0 -0 -0 -0 -0 -0 -0 -0 -0 -0 -0 -0 -0 -0 -0 -0 -0 -0 -0 -0 -0 -0 -0 -0 -0 -0 -0 -0 -0 -0 -0 -0
-0 -0 -0 -1 -0 -0 -0 -0 -0 -0 -0 -0 -0 -0 -0 -0 -0 -0 -0 -0 -0 -0 -0 -0 -0 -0 -0 -0 -0 -0 -0 -0 -0 -0 -0 -0 -15 -0 -0 -0 -0 -0 -0 -0 -0
-1 -0 -0 -0 -0 -0 -0 -0 -0 -0 -0 -0 -0 -0 -0 -0 -0 -0 -0 -0 -0 -0 -0 -0 -0 -0 -0 -0 -0 -0 -0 -0 -1 -0 -0 -0 -0 -0 -0 -0 -0 -0 -0 -0 -0
-0 -0 -0 -0 -0 -0 -0 -0 -0 -0 -0 -0 -0 -0 -0 -0 -0 -0 -0 -0 -0 -0 -0 -0 -0 -0 -0 -0 -0 -0 -0 -0 -0 -0 -0 -0 -1 -0 -0 -0 -0 -0 -0 -0 -0
-0 -0 -0 -0 -0 -0 -0 -0 -0 -0 -0 -0 -0 -0 -0 -0 -0 -0 -0 -0 -0 -0 -0 -0 -0 -0 -2 -0 -0 -0 -0 -0 -0 -0 -0 -0 -0 -0 -0 -0 -0 -0 -0 -0 -0
-0 -0 -0 -0 -0 -0 -0 -0 -0 -0 -0 -0 -0 -0 -0 -0 -0 -0 -0 -0 -0 -0 -0 -0 -0 -0 -0 -0 -0 -0 -0 -0 -0 -0 -41 -0 -0 -0 -0 -0 -0 -0 -0 -0 -0
-0 -0 -0 -0 -0 -0 -0 -0 -0 -0 -0 -0 -0 -0 -0 -0 -0 -0 -0 -0 -0 -1 -0 -0 -0 -0 -1 -0 -0 -0 -0 -6 -20 -14 -5 -0 -0 -0 -0 -0 -0 -0 -0 -0 -0
-5 -0 -0 -0 -0 -0 -0 -0 -0 -0 -0 -0 -0 -0 -0 -0 -0 -0 -0 -0 -0 -0 -0 -0 -0 -0 -0 -0 -0 -0 -0 -0 -0 -0 -0 -0 -0 -0 -0 -0 -0 -0 -0 -0 -0
-0 -0 -0 -0 -0 -0 -0 -0 -2 -0 -0 -0 -0 -0 -0 -0 -0 -0 -0 -0 -0 -0 -0 -0 -0 -0 -0 -0 -0 -0 -0 -0 -0 -0 -22 -0 -0 -0 -0 -0 -0 -0 -0 -0 -0
-0 -0 -0 -0 -0 -0 -0 -0 -0 -0 -0 -0 -0 -0 -0 -0 -0 -0 -0 -0 -0 -0 -0 -0 -0 -0 -0 -0 -1 -0 -0 -1 -0 -0 -0 -0 -0 -0 -0 -0 -0 -0 -0 -0 -0
-0 -0 -0 -0 -0 -0 -0 -0 -0 -0 -0 -0 -0 -0 -0 -0 -0 -0 -0 -0 -0 -0 -0 -2 -0 -0 -0 -0 -0 -0 -0 -0 -0 -0 -0 -0 -0 -0 -0 -0 -0 -0 -0 -0 -0
-0 -0 -0 -0 -0 -0 -0 -0 -0 -0 -0 -0 -0 -0 -0 -0 -0 -0 -0 -0 -0 -0 -6 -0 -0 -0 -0 -0 -0 -0 -0 -0 -0 -0 -0 -0 -0 -0 -0 -0 -0 -0 -0 -0 -0
-0 -0 -0 -0 -0 -0 -0 -0 -0 -0 -0 -0 -0 -0 -0 -0 -0 -0 -0 -0 -0 -0 -0 -0 -0 -0 -0 -0 -0 -0 -0 -0 -0 -0 -0 -0 -0 -0 -0 -0 -0 -0 -0 -0 -0
-0 -0 -0 -0 -0 -0 -0 -0 -0 -0 -0 -0 -0 -0 -0 -0 -0 -0 -0 -0 -0 -0 -0 -0 -0 -0 -0 -0 -0 -0 -0 -0 -0 -0 -0 -0 -0 -0 -0 -0 -0 -0 -0 -0 -0
Wind_Speed
37 38 39 40 40 41 42 43 44 45 45 47 47 48 49 50 50 45 46 35 34 31 31 34 31 28 27 32 31 30 46 57 52 46 40 30 32 30 28 31 27 24 29 27 21
38 39 40 40 41 42 42 44 45 45 46 47 49 50 51 52 52 48 28 33 25 29 30 35 37 32 33 34 34 40 50 56 46 45 43 40 38 33 30 30 32 30 26 25 19
37 39 41 41 42 43 43 45 45 46 47 47 48 49 49 48 51 32 23 30 30 30 28 30 31 34 42 37 38 42 57 50 46 44 42 46 41 33 35 35 31 30 28 24 23
39 39 41 42 42 44 44 45 46 47 47 48 49 49 48 41 47 24 31 39 35 35 34 35 33 37 41 46 42 53 52 51 53 45 44 49 44 47 42 40 29 26 23 21 23
40 42 42 44 44 45 46 47 48 48 49 49 50 49 46 41 40 38 41 34 31 36 37 38 42 42 50 44 44 52 55 50 48 48 52 49 54 49 51 46 40 33 28 26 24
41 42 43 44 45 47 47 48 49 49 50 50 50 46 42 51 30 31 35 38 41 38 34 34 39 41 49 50 50 45 46 52 53 56 53 52 56 50 59 45 42 40 38 32 28
41 43 43 43 46 47 49 49 50 50 51 50 47 41 42 46 35 39 40 39 34 33 38 34 35 38 41 51 52 53 59 56 56 50 48 49 67 67 52 43 47 47 43 38 34
41 41 44 44 46 48 49 50 51 50 49 46 41 39 43 33 31 32 27 28 32 35 36 35 33 40 43 45 50 48 48 61 55 53 52 45 78 56 49 47 51 50 51 49 44
40 44 43 44 46 48 50 52 49 47 42 42 43 32 43 29 32 29 38 43 42 36 33 37 35 41 42 50 58 56 68 64 60 49 44 50 74 56 46 43 49 50 51 50 48
40 43 44 45 46 49 51 49 45 38 36 41 28 41 33 39 43 33 31 29 33 36 37 35 36 44 46 50 67 64 64 65 67 52 49 60 66 56 46 44 49 48 49 49 50
42 43 44 43 45 49 46 48 47 41 51 46 45 41 37 29 28 25 30 35 30 29 34 32 40 50 52 52 54 59 58 65 59 53 56 62 65 60 51 52 52 50 48 49 48
42 42 43 44 45 44 39 43 38 38 53 44 36 29 21 22 32 33 28 30 30 35 34 37 46 45 45 47 52 57 59 63 60 52 55 61 69 60 52 55 54 54 55 53 52
42 43 43 44 44 35 44 35 34 37 43 42 29 27 26 23 31 38 25 30 34 37 39 45 48 45 43 45 49 57 61 57 59 50 56 57 70 63 51 49 50 50 51 50 51
41 43 43 46 38 41 39 33 35 31 43 36 32 27 23 37 34 32 18 26 29 38 40 42 45 42 45 44 43 56 54 56 55 54 71 49 79 60 57 59 54 55 51 51 49
40 42 42 41 38 39 33 35 33 29 51 30 35 24 41 30 31 24 19 16 29 38 34 41 38 35 39 42 34 47 46 52 55 54 50 52 59 60 54 59 56 55 54 55 56
40 40 42 38 34 29 30 32 30 40 39 41 31 36 40 34 28 14 12 4 6 18 20 40 34 31 39 41 35 38 39 41 46 53 69 58 55 62 52 51 50 48 51 51 51
38 38 39 33 34 29 29 35 43 39 35 37 40 32 28 29 27 28 13 4 17 31 30 26 29 28 25 35 34 34 31 41 49 57 67 57 54 51 38 45 49 52 52 49 44
38 37 35 28 28 27 32 39 45 36 36 32 31 22 24 39 17 24 3 20 4 3 29 25 28 22 10 26 30 28 30 36 45 47 53 53 62 69 54 49 45 44 44 42 38
37 35 32 29 28 28 38 43 39 35 32 33 30 23 27 35 31 21 21 18 5 24 30 28 29 16 11 10 15 24 28 29 36 34 33 37 38 43 40 40 39 43 37 35 34
39 35 31 29 27 31 36 38 32 29 29 29 22 21 24 30 36 35 21 24 23 26 29 17 28 13 13 3 10 12 10 21 24 30 37 24 25 27 29 35 32 32 32 33 35
33 37 30 28 29 32 40 35 33 25 27 21 16 16 15 10 22 9 8 18 27 27 30 23 16 17 16 11 21 9 10 18 24 26 26 32 23 23 25 23 23 25 26 28 29
31 39 29 28 36 35 37 33 28 25 24 15 13 10 10 14 16 5 4 5 16 31 29 19 18 21 19 11 22 7 22 13 20 28 25 25 27 19 19 19 21 21 20 22 22
35 30 27 29 40 40 34 31 26 26 22 16 12 12 9 7 17 8 11 6 24 31 25 23 19 26 19 12 8 22 20 25 16 17 21 26 25 19 19 19 20 22 22 22 22
31 35 31 30 29 33 38 34 30 21 16 11 5 3 7 11 10 14 28 20 33 29 28 23 22 20 18 20 19 21 20 22 13 15 14 19 18 23 23 23 24 23 23 24 23
27 29 30 37 34 31 30 27 28 25 16 12 14 10 11 15 28 16 16 36 33 27 25 21 20 20 19 16 3 19 14 9 7 15 16 16 17 23 24 24 24 24 25 25 26
25 28 27 31 28 29 27 26 25 23 19 15 10 10 12 14 16 28 24 19 21 30 23 26 20 22 17 14 21 17 15 16 11 12 11 14 16 23 23 20 24 26 27 28 29
19 21 25 30 28 28 25 23 22 19 15 10 10 18 18 16 15 18 16 17 17 27 30 26 20 18 17 13 14 10 14 15 15 14 13 14 19 23 22 21 24 28 28 29 30
Wind_Direction
346 345 344 343 342 341 339 338 338 337 335 332 330 328 326 322 320 320 311 311 306 305 302 289 287 279 275 271 267 268 261 260 260 261 264 275 272 276 278 271 272 269 269 274 272
347 345 343 344 342 341 340 339 338 338 335 332 330 328 325 323 319 315 319 329 324 313 295 287 279 277 270 269 266 257 260 261 265 263 267 268 269 273 274 270 267 268 271 272 262
353 348 345 344 343 342 341 340 339 337 336 334 333 331 329 329 319 321 333 331 325 317 305 298 285 275 267 265 261 262 258 262 268 266 267 266 267 269 266 265 267 270 267 266 262
352 351 348 345 344 343 342 341 340 338 337 335 333 330 328 328 312 333 319 318 316 311 302 291 284 273 269 262 262 262 263 263 264 268 267 264 267 262 262 263 271 271 274 268 260
351 348 346 345 344 343 342 340 339 338 336 334 331 329 328 319 309 311 309 312 312 311 296 288 278 274 266 268 266 262 262 265 267 266 264 266 261 263 260 261 264 268 269 266 265
351 349 347 345 343 342 340 339 337 335 334 332 330 328 323 311 323 321 313 307 303 303 297 290 279 276 272 266 264 266 268 265 264 263 263 263 262 261 257 261 262 261 262 264 263
351 349 348 347 343 341 339 338 336 334 332 331 330 330 318 309 318 314 311 306 303 298 291 289 286 276 274 267 266 265 264 265 261 262 265 263 259 255 260 261 258 258 259 262 262
352 351 348 347 344 341 340 338 335 334 332 333 334 330 319 326 326 324 328 318 311 303 293 288 286 279 270 270 267 265 263 259 260 258 259 260 256 260 260 258 258 257 258 259 261
352 349 348 347 345 343 340 338 336 335 338 339 334 336 325 336 329 326 316 305 301 297 292 288 283 273 272 264 262 259 257 257 260 259 260 251 257 260 262 261 258 257 257 258 260
352 350 349 347 346 344 341 341 340 342 347 345 344 333 331 327 324 327 326 320 309 302 291 283 278 269 264 259 255 257 256 257 256 257 257 257 258 260 262 260 259 259 258 257 257
351 350 349 349 348 345 346 346 346 343 340 340 329 325 323 336 334 336 331 320 312 300 290 288 277 267 267 264 264 263 261 259 259 258 258 257 258 258 260 260 259 258 258 258 258
352 351 350 349 348 348 354 350 350 344 336 339 336 337 339 346 334 330 334 321 311 294 291 286 278 278 274 268 262 260 261 259 260 259 257 257 257 259 260 258 258 258 258 258 259
351 351 350 349 349 356 349 353 354 350 341 346 355 356 352 357 340 329 335 324 309 296 289 284 281 280 275 270 263 258 256 259 261 263 258 259 257 256 259 259 259 259 259 259 258
352 351 351 350 354 351 352 356 354 356 343 351 0 360 0 342 340 342 324 324 316 296 296 290 284 276 270 268 267 263 258 256 260 262 255 254 256 257 256 256 258 258 258 258 259
354 352 352 354 348 351 355 354 355 359 344 2 355 2 311 346 343 292 14 352 317 304 302 291 288 281 275 269 273 268 266 257 255 257 265 253 256 256 257 255 256 257 260 260 260
354 353 352 355 356 358 358 358 2 353 350 350 0 351 345 302 359 357 357 209 235 329 324 286 291 285 273 275 277 274 269 261 256 255 254 256 256 256 253 253 258 262 263 264 263
355 354 354 358 356 1 3 1 355 356 356 355 353 359 360 0 301 10 16 326 353 325 315 306 289 295 291 282 283 268 265 257 252 248 251 253 259 258 264 259 263 266 266 266 267
356 354 358 7 7 9 6 359 356 355 354 355 358 359 14 341 16 13 309 356 72 231 302 317 310 320 41 307 293 273 254 254 252 251 257 257 256 256 264 269 269 267 267 270 272
358 0 6 11 12 11 2 359 359 2 0 359 2 13 11 324 0 357 8 287 261 318 338 315 298 254 241 250 299 286 257 258 258 258 264 263 267 267 265 265 267 265 269 274 275
357 1 6 11 14 8 5 1 2 4 1 3 9 16 10 358 330 326 332 301 293 311 320 275 286 256 37 14 37 298 279 254 248 251 244 269 272 269 270 266 272 273 276 277 276
2 1 9 14 11 10 4 1 359 4 6 13 12 14 18 11 302 325 51 285 312 301 308 284 244 264 290 53 312 322 282 272 250 257 255 255 280 295 283 286 286 283 286 287 285
4 358 9 14 6 7 1 3 3 2 12 23 31 36 27 292 289 348 342 299 287 304 297 272 255 277 283 242 36 103 253 278 245 247 266 262 267 307 309 303 295 297 302 299 299
358 1 13 13 4 3 5 6 10 10 18 34 39 32 276 316 289 284 279 322 286 300 284 280 265 294 289 270 42 340 265 246 268 260 253 258 265 297 313 313 309 301 299 305 306
2 359 5 11 11 6 4 7 9 19 27 47 24 350 2 344 343 291 281 279 305 290 284 277 268 268 261 273 282 302 284 256 266 262 266 269 268 279 295 302 304 307 306 300 305
5 2 5 359 2 2 5 8 11 19 38 40 33 27 300 296 295 355 343 283 298 277 290 273 256 258 266 267 304 331 323 336 300 283 278 286 288 283 297 292 298 310 305 297 294
0 1 5 355 2 4 10 13 15 20 24 16 18 299 298 295 291 293 292 276 261 291 272 279 246 268 254 196 357 345 350 7 354 325 314 309 298 307 299 300 318 316 311 305 303
3 4 3 360 3 5 9 13 9 9 33 30 294 286 289 291 304 296 283 267 249 253 260 256 245 260 241 220 218 286 334 1 7 351 328 325 314 312 319 307 326 321 321 315 311